Find STARLINK-37415

NORAD ID: 799501212 Int'l Des: 2026-161H Constellation: starlink operational

Aktuelle Ansicht

3D-Globus wird geladen...

About STARLINK-37415

STARLINK-37415 (NORAD 799501212) is a starlink constellation satellite launched Jul 14, 2026

Über STARLINK-37415

Beschreibung wird geladen...

Nächste Überflüge

Passes for default location (London). Set your location on the main map for personalized predictions.

Höhenverlauf

Loading altitude history...

Zweizeiliger Elementsatz

1 99999C 2026161H 26195.68173610 .00612490 00000-0 637730-4 0 1958
2 99999 53.1643 325.3445 0009404 281.0303 33.6537 16.09370326 14
Epoch: 14. Juli 2026 • Age: 4 hours